Terminal Aerodrome Forecast
Issued by NWS

Home | Current Version | Previous Version | Text Only | Print | Product List | Glossary Off
Versions: 1 2 3 4 5 6 7 8 9 10 11 12

000
FTUS43 KTOP 240400 AAA
TAFMHK
TAF AMD
KMHK 240422Z 2404/2424 31011KT P6SM -RASN OVC015
     FM240600 34012KT 6SM -SN BR OVC010
     FM241000 32013G20KT P6SM OVC009
     FM241500 32012KT P6SM OVC018
     FM242100 29010KT P6SM SCT025=

USA.gov is the U.S. government's official web portal to all federal, state and local government web resources and services.